User: anonymous   Login
Location: Clermont
(50.2608°N, 4.3172°E)
Time: 08:45:49
(UTC+00:00)
Language:

Nadezhda 4 Rocket - Orbit

View from above orbital plane
View from above orbital plane
View from above satellite
View from above satellite

Ground track
Ground track

The orbit data is extracted from the following two-line orbital elements,

1 23180U 94041B   20293.77156810 -.00000044 +00000-0 -59015-4 0  9997
2 23180 082.9424 102.7544 0029782 044.0511 326.6030 13.77980970321008
Epoch (UTC): 19 October 2020 18:31:03
Eccentricity: 0.0029782
inclination: 82.9424°
perigee height: 949 km
apogee height: 993 km
right ascension of ascending node: 102.7544°
argument of perigee: 44.0511°
revolutions per day: 13.77980970
mean anomaly at epoch: 326.6030°
orbit number at epoch: 32100

The dashed part of the orbit path shows where the satellite is in the earth's shadow,  

DLR